E.r. Basel — A8XQ4 — position and weather

sailwx.info

Track history (hours):
 
Tides and Currents Weather Stations Pressure Air Temp Water Temp Dewpoint Dewpoint Depression Visibility Wind Speed Wind Dir Waves Ship Positions

E.r. Basel

Last reported at 2016-Aug-04 21:22 UTC. Time now 2016-Aug-27 08:07 UTC.
Position N 24°50' W 015°38'.
Warning: this ship's position is 22 days out of date.

Length 187 m; draft 9.5 m.

Type: Cargo ship. MMSI: 636092149.

Date/timePositionNaut miles runAvg speedWind from/ knotsBaromVisibWave heightAir tempDewpointWater temp
2016-Aug-04 21:22N 24°50' W 015°38'1012.6
2016-Aug-04 20:33N 24°59' W 015°32'11413.4
2016-Aug-04 12:03N 26°36' W 014°26'712.8
2016-Aug-04 11:31N 26°41' W 014°22'1313.1
2016-Aug-04 10:33N 26°51' W 014°13'1312.5
2016-Aug-04 09:33N 27°02' W 014°05'1312.8
2016-Aug-04 08:33N 27°12' W 013°57'1312.6
2016-Aug-04 07:33N 27°23' W 013°49'1312.7
2016-Aug-04 06:33N 27°33' W 013°40'2613.1
2016-Aug-04 04:33N 27°54' W 013°24'5112.7
2016-Aug-04 00:33N 28°36' W 012°51'1212.0
2016-Aug-03 23:33N 28°46' W 012°43'1212.2
2016-Aug-03 22:32N 28°56' W 012°35'2512.3
2016-Aug-03 20:28N 29°17' W 012°18'1112.4
2016-Aug-03 19:33N 29°26' W 012°10'1312.5
2016-Aug-03 18:33N 29°36' W 012°02'2712.2
2016-Aug-03 16:22N 29°58' W 011°44'7911.6
2016-Aug-03 09:33N 31°03' W 010°52'1312.4
2016-Aug-03 08:32N 31°13' W 010°43'1212.1
2016-Aug-03 07:33N 31°22' W 010°35'1212.3
2016-Aug-03 06:33N 31°33' W 010°27'2612.8
2016-Aug-03 04:33N 31°54' W 010°09'10913.0
2016-Aug-02 20:09N 33°19' W 008°49'813.5
2016-Aug-02 19:33N 33°25' W 008°42'4113.2
2016-Aug-02 16:28N 33°56' W 008°09'1613.2
2016-Aug-02 15:16N 34°07' W 007°56'10212.7
2016-Aug-02 07:14N 35°23' W 006°33'5811.4
2016-Aug-02 02:07N 35°57' W 005°35'711.6
2016-Aug-02 01:33N 35°60' W 005°27'9 4.3
2016-Aug-01 23:30N 36°07' W 005°22'0 0.0
2016-Aug-01 22:33N 36°07' W 005°22'0 0.0
2016-Aug-01 21:32N 36°07' W 005°22'0 0.1
2016-Aug-01 20:33N 36°07' W 005°22'0 0.3
2016-Aug-01 19:33N 36°07' W 005°22'0 0.1
2016-Aug-01 18:33N 36°07' W 005°22'0 0.0
2016-Aug-01 17:25N 36°07' W 005°22'0 0.1
2016-Aug-01 16:33N 36°07' W 005°22'0 0.1
2016-Aug-01 15:29N 36°07' W 005°22'2 2.2
2016-Aug-01 14:33N 36°05' W 005°21'4 3.9
2016-Aug-01 13:33N 36°05' W 005°16'14311.9
2016-Aug-01 01:32N 36°25' W 002°20'4112.0
2016-Jul-31 22:06N 36°32' W 001°30'812.1
2016-Jul-31 21:26N 36°33' W 001°20'1311.7
2016-Jul-31 20:20N 36°36' W 001°04'1312.3
2016-Jul-31 19:16N 36°38' W 000°48'1212.2
2016-Jul-31 18:15N 36°40' W 000°32'2012.0
2016-Jul-31 16:32N 36°44' W 000°07'1111.5
2016-Jul-31 15:33N 36°46' E 000°07'1311.9
2016-Jul-31 14:27N 36°48' E 000°23'1112.3
2016-Jul-31 13:33N 36°50' E 000°36'1312.7
2016-Jul-31 12:33N 36°53' E 000°52'2412.2
2016-Jul-31 10:33N 36°57' E 001°22'1212.0
2016-Jul-31 09:33N 36°59' E 001°37'1212.4
2016-Jul-31 08:33N 37°01' E 001°52'1212.3
2016-Jul-31 07:33N 37°04' E 002°07'1212.2
2016-Jul-31 06:33N 37°06' E 002°22'1212.1
2016-Jul-31 05:33N 37°08' E 002°37'1212.3
2016-Jul-31 04:33N 37°10' E 002°52'1212.5
2016-Jul-31 03:33N 37°11' E 003°08'1212.2
2016-Jul-31 02:33N 37°13' E 003°23'1212.0
2016-Jul-31 01:33N 37°14' E 003°38'1212.5
2016-Jul-31 00:33N 37°15' E 003°54'2512.4
2016-Jul-30 22:33N 37°18' E 004°25'5012.5
2016-Jul-30 18:33N 37°22' E 005°28'1212.4
2016-Jul-30 17:33N 37°24' E 005°43'1212.2
2016-Jul-30 16:33N 37°25' E 005°58'1712.2
2016-Jul-30 15:06N 37°26' E 006°20'3312.8
2016-Jul-30 12:33N 37°29' E 007°01'5613.2
2016-Jul-30 08:19N 37°35' E 008°12'1114.0
2016-Jul-30 07:30N 37°36' E 008°26'1313.4
2016-Jul-30 06:33N 37°37' E 008°42'1312.8
2016-Jul-30 05:33N 37°38' E 008°58'1312.3
2016-Jul-30 04:29N 37°38' E 009°15'1212.5
2016-Jul-30 03:33N 37°38' E 009°30'1212.5
2016-Jul-30 02:33N 37°38' E 009°45'1512.5
2016-Jul-30 01:20N 37°38' E 010°04'1012.5
2016-Jul-30 00:32N 37°37' E 010°17'1812.6
2016-Jul-29 23:04N 37°33' E 010°40'712.8
2016-Jul-29 22:32N 37°31' E 010°48'1512.8
2016-Jul-29 21:21N 37°28' E 011°07'1412.6
2016-Jul-29 20:16N 37°22' E 011°22'912.5
2016-Jul-29 19:33N 37°19' E 011°33'1212.5
2016-Jul-29 18:33N 37°13' E 011°47'1312.7
2016-Jul-29 17:34N 37°08' E 012°01'1212.3
2016-Jul-29 16:33N 37°04' E 012°16'1212.2
2016-Jul-29 15:33N 36°60' E 012°30'1212.3
2016-Jul-29 14:34N 36°56' E 012°45'1212.2
2016-Jul-29 13:34N 36°52' E 012°59'1211.6
2016-Jul-29 12:33N 36°48' E 013°13'1111.3
2016-Jul-29 11:33N 36°44' E 013°26'1211.6
2016-Jul-29 10:34N 36°40' E 013°40'1211.7
2016-Jul-29 09:33N 36°37' E 013°54'1211.9
2016-Jul-29 08:33N 36°33' E 014°08'1312.7
2016-Jul-29 07:33N 36°29' E 014°23'1312.8
2016-Jul-29 06:33N 36°25' E 014°38'1312.8
2016-Jul-29 05:33N 36°25' E 014°54'1312.7
2016-Jul-29 04:33N 36°25' E 015°10'1312.9
2016-Jul-29 03:33N 36°25' E 015°26'1312.8
2016-Jul-29 02:30N 36°25' E 015°43'  
2016-Jul-26 15:04N 35°48' E 030°56'21412.9
2016-Jul-25 22:33N 36°20' E 035°17'  
Track history (hours):
 
Tides and Currents Weather Stations Pressure Air Temp Water Temp Dewpoint Dewpoint Depression Visibility Wind Speed Wind Dir Waves Ship Positions

E.r. Basel

Last reported at 2016-Aug-04 21:22 UTC. Time now 2016-Aug-27 08:07 UTC.
Position N 24°50' W 015°38'.
Warning: this ship's position is 22 days out of date.

Length 187 m; draft 9.5 m.

Type: Cargo ship. MMSI: 636092149.

Date/timePositionNaut miles runAvg speedWind from/ knotsBaromVisibWave heightAir tempDewpointWater temp
2016-Aug-04 21:22N 24°50' W 015°38'1012.6
2016-Aug-04 20:33N 24°59' W 015°32'11413.4
2016-Aug-04 12:03N 26°36' W 014°26'712.8
2016-Aug-04 11:31N 26°41' W 014°22'1313.1
2016-Aug-04 10:33N 26°51' W 014°13'1312.5
2016-Aug-04 09:33N 27°02' W 014°05'1312.8
2016-Aug-04 08:33N 27°12' W 013°57'1312.6
2016-Aug-04 07:33N 27°23' W 013°49'1312.7
2016-Aug-04 06:33N 27°33' W 013°40'2613.1
2016-Aug-04 04:33N 27°54' W 013°24'5112.7
2016-Aug-04 00:33N 28°36' W 012°51'1212.0
2016-Aug-03 23:33N 28°46' W 012°43'1212.2
2016-Aug-03 22:32N 28°56' W 012°35'2512.3
2016-Aug-03 20:28N 29°17' W 012°18'1112.4
2016-Aug-03 19:33N 29°26' W 012°10'1312.5
2016-Aug-03 18:33N 29°36' W 012°02'2712.2
2016-Aug-03 16:22N 29°58' W 011°44'7911.6
2016-Aug-03 09:33N 31°03' W 010°52'1312.4
2016-Aug-03 08:32N 31°13' W 010°43'1212.1
2016-Aug-03 07:33N 31°22' W 010°35'1212.3
2016-Aug-03 06:33N 31°33' W 010°27'2612.8
2016-Aug-03 04:33N 31°54' W 010°09'10913.0
2016-Aug-02 20:09N 33°19' W 008°49'813.5
2016-Aug-02 19:33N 33°25' W 008°42'4113.2
2016-Aug-02 16:28N 33°56' W 008°09'1613.2
2016-Aug-02 15:16N 34°07' W 007°56'10212.7
2016-Aug-02 07:14N 35°23' W 006°33'5811.4
2016-Aug-02 02:07N 35°57' W 005°35'711.6
2016-Aug-02 01:33N 35°60' W 005°27'9 4.3
2016-Aug-01 23:30N 36°07' W 005°22'0 0.0
2016-Aug-01 22:33N 36°07' W 005°22'0 0.0
2016-Aug-01 21:32N 36°07' W 005°22'0 0.1
2016-Aug-01 20:33N 36°07' W 005°22'0 0.3
2016-Aug-01 19:33N 36°07' W 005°22'0 0.1
2016-Aug-01 18:33N 36°07' W 005°22'0 0.0
2016-Aug-01 17:25N 36°07' W 005°22'0 0.1
2016-Aug-01 16:33N 36°07' W 005°22'0 0.1
2016-Aug-01 15:29N 36°07' W 005°22'2 2.2
2016-Aug-01 14:33N 36°05' W 005°21'4 3.9
2016-Aug-01 13:33N 36°05' W 005°16'14311.9
2016-Aug-01 01:32N 36°25' W 002°20'4112.0
2016-Jul-31 22:06N 36°32' W 001°30'812.1
2016-Jul-31 21:26N 36°33' W 001°20'1311.7
2016-Jul-31 20:20N 36°36' W 001°04'1312.3
2016-Jul-31 19:16N 36°38' W 000°48'1212.2
2016-Jul-31 18:15N 36°40' W 000°32'2012.0
2016-Jul-31 16:32N 36°44' W 000°07'1111.5
2016-Jul-31 15:33N 36°46' E 000°07'1311.9
2016-Jul-31 14:27N 36°48' E 000°23'1112.3
2016-Jul-31 13:33N 36°50' E 000°36'1312.7
2016-Jul-31 12:33N 36°53' E 000°52'2412.2
2016-Jul-31 10:33N 36°57' E 001°22'1212.0
2016-Jul-31 09:33N 36°59' E 001°37'1212.4
2016-Jul-31 08:33N 37°01' E 001°52'1212.3
2016-Jul-31 07:33N 37°04' E 002°07'1212.2
2016-Jul-31 06:33N 37°06' E 002°22'1212.1
2016-Jul-31 05:33N 37°08' E 002°37'1212.3
2016-Jul-31 04:33N 37°10' E 002°52'1212.5
2016-Jul-31 03:33N 37°11' E 003°08'1212.2
2016-Jul-31 02:33N 37°13' E 003°23'1212.0
2016-Jul-31 01:33N 37°14' E 003°38'1212.5
2016-Jul-31 00:33N 37°15' E 003°54'2512.4
2016-Jul-30 22:33N 37°18' E 004°25'5012.5
2016-Jul-30 18:33N 37°22' E 005°28'1212.4
2016-Jul-30 17:33N 37°24' E 005°43'1212.2
2016-Jul-30 16:33N 37°25' E 005°58'1712.2
2016-Jul-30 15:06N 37°26' E 006°20'3312.8
2016-Jul-30 12:33N 37°29' E 007°01'5613.2
2016-Jul-30 08:19N 37°35' E 008°12'1114.0
2016-Jul-30 07:30N 37°36' E 008°26'1313.4
2016-Jul-30 06:33N 37°37' E 008°42'1312.8
2016-Jul-30 05:33N 37°38' E 008°58'1312.3
2016-Jul-30 04:29N 37°38' E 009°15'1212.5
2016-Jul-30 03:33N 37°38' E 009°30'1212.5
2016-Jul-30 02:33N 37°38' E 009°45'1512.5
2016-Jul-30 01:20N 37°38' E 010°04'1012.5
2016-Jul-30 00:32N 37°37' E 010°17'1812.6
2016-Jul-29 23:04N 37°33' E 010°40'712.8
2016-Jul-29 22:32N 37°31' E 010°48'1512.8
2016-Jul-29 21:21N 37°28' E 011°07'1412.6
2016-Jul-29 20:16N 37°22' E 011°22'912.5
2016-Jul-29 19:33N 37°19' E 011°33'1212.5
2016-Jul-29 18:33N 37°13' E 011°47'1312.7
2016-Jul-29 17:34N 37°08' E 012°01'1212.3
2016-Jul-29 16:33N 37°04' E 012°16'1212.2
2016-Jul-29 15:33N 36°60' E 012°30'1212.3
2016-Jul-29 14:34N 36°56' E 012°45'1212.2
2016-Jul-29 13:34N 36°52' E 012°59'1211.6
2016-Jul-29 12:33N 36°48' E 013°13'1111.3
2016-Jul-29 11:33N 36°44' E 013°26'1211.6
2016-Jul-29 10:34N 36°40' E 013°40'1211.7
2016-Jul-29 09:33N 36°37' E 013°54'1211.9
2016-Jul-29 08:33N 36°33' E 014°08'1312.7
2016-Jul-29 07:33N 36°29' E 014°23'1312.8
2016-Jul-29 06:33N 36°25' E 014°38'1312.8
2016-Jul-29 05:33N 36°25' E 014°54'1312.7
2016-Jul-29 04:33N 36°25' E 015°10'1312.9
2016-Jul-29 03:33N 36°25' E 015°26'1312.8
2016-Jul-29 02:30N 36°25' E 015°43'  
2016-Jul-26 15:04N 35°48' E 030°56'21412.9
2016-Jul-25 22:33N 36°20' E 035°17'  

Dump ship's entire track history